DAL5 ANYN-KSEA

Flight info

Callsign DAL5
Flight time N/A
Altitude 37000
Route NI A598 MARTI DCT 04N170E 12N180E 21N170W/N0482F390 30N160W 37N150W/N0488F410 42N140W DCT LATAY HAWKZ8
Aircraft A359/H-SDE2E3GHIJ3J4J5LM1ORWXY/LB1D1

Departure

Time 2026-04-18 07:06
Airport Nauru International Airport (ANYN)

Arrival

Time N/A
Airport Seattle–Tacoma International Airport (KSEA)
Time Latitude Longitude Altitude Speed Heading
2026-04-18 06:50 -0.54398 166.91664 44 ft 0 kts 187°
2026-04-18 07:01 -0.54399 166.91664 44 ft 0 kts 187°
2026-04-18 07:02 -0.54404 166.91661 44 ft 2 kts 209°
2026-04-18 07:02 -0.54438 166.91637 40 ft 9 kts 219°
2026-04-18 07:03 -0.54458 166.91574 37 ft 10 kts 303°
2026-04-18 07:03 -0.54408 166.91511 35 ft 12 kts 310°
2026-04-18 07:03 -0.54346 166.91437 33 ft 14 kts 311°
2026-04-18 07:03 -0.54276 166.91357 32 ft 16 kts 311°
2026-04-18 07:04 -0.54201 166.91267 30 ft 15 kts 311°
2026-04-18 07:04 -0.54148 166.91229 29 ft 5 kts 341°
2026-04-18 07:04 -0.54129 166.91216 29 ft 2 kts 283°
2026-04-18 07:04 -0.54143 166.91206 28 ft 4 kts 174°
2026-04-18 07:05 -0.54159 166.91217 29 ft 0 kts 131°
2026-04-18 07:05 -0.54186 166.91249 29 ft 28 kts 130°
2026-04-18 07:05 -0.54472 166.91588 37 ft 99 kts 130°
2026-04-18 07:05 -0.55059 166.92276 35 ft 161 kts 130°
2026-04-18 07:06 -0.55871 166.93218 339 ft 186 kts 129°
2026-04-18 07:06 -0.56693 166.94159 1186 ft 179 kts 130°
2026-04-18 07:06 -0.57484 166.95042 2045 ft 166 kts 128°
2026-04-18 07:06 -0.58019 166.96042 2353 ft 169 kts 94°
2026-04-18 07:07 -0.57733 166.97185 2601 ft 180 kts 56°
2026-04-18 07:07 -0.56709 166.97957 2867 ft 195 kts 26°
2026-04-18 07:07 -0.55383 166.98430 3150 ft 210 kts 20°
2026-04-18 07:07 -0.53931 166.98866 3453 ft 225 kts 19°
2026-04-18 07:08 -0.52373 166.99326 3777 ft 242 kts 19°
2026-04-18 07:08 -0.50729 166.99811 4127 ft 257 kts 19°
2026-04-18 07:08 -0.48986 167.00330 4616 ft 267 kts 19°
2026-04-18 07:08 -0.47204 167.00862 5294 ft 269 kts 19°
2026-04-18 07:09 -0.45419 167.01393 6003 ft 271 kts 19°
2026-04-18 07:09 -0.43610 167.01933 6695 ft 273 kts 19°
2026-04-18 07:09 -0.41788 167.02478 7373 ft 276 kts 19°
2026-04-18 07:09 -0.39979 167.03024 8027 ft 278 kts 19°
2026-04-18 07:10 -0.38127 167.03587 8680 ft 281 kts 19°
2026-04-18 07:10 -0.36258 167.04158 9332 ft 284 kts 19°
2026-04-18 07:10 -0.34355 167.04739 9975 ft 287 kts 19°
2026-04-18 07:10 -0.32446 167.05327 10426 ft 297 kts 19°
2026-04-18 07:11 -0.30493 167.06113 10717 ft 310 kts 30°
2026-04-18 07:11 -0.28574 167.07202 11020 ft 324 kts 32°
2026-04-18 07:11 -0.26588 167.08374 11308 ft 339 kts 32°
2026-04-18 07:11 -0.24551 167.09580 11584 ft 353 kts 32°
2026-04-18 07:12 -0.22388 167.10851 11856 ft 366 kts 31°
2026-04-18 07:12 -0.20152 167.12160 12118 ft 380 kts 31°
2026-04-18 07:12 -0.17854 167.13501 12432 ft 391 kts 31°
2026-04-18 07:12 -0.15495 167.14876 12952 ft 395 kts 31°
2026-04-18 07:13 -0.13134 167.16249 13527 ft 398 kts 31°
2026-04-18 07:13 -0.10725 167.17651 14079 ft 401 kts 31°
2026-04-18 07:13 -0.08304 167.19058 14614 ft 404 kts 31°
2026-04-18 07:13 -0.05881 167.20467 15141 ft 407 kts 31°
2026-04-18 07:14 -0.03431 167.21892 15662 ft 410 kts 31°
2026-04-18 07:14 -0.00989 167.23311 16173 ft 413 kts 31°
2026-04-18 07:14 0.01496 167.24754 16681 ft 416 kts 31°
2026-04-18 07:14 0.04023 167.26224 17173 ft 419 kts 31°
2026-04-18 07:15 0.06524 167.27678 17656 ft 422 kts 31°
2026-04-18 07:15 0.09069 167.29156 18139 ft 425 kts 31°
2026-04-18 07:15 0.11628 167.30641 18613 ft 428 kts 31°
2026-04-18 07:15 0.14201 167.32127 19087 ft 430 kts 31°
2026-04-18 07:16 0.16768 167.33611 19543 ft 432 kts 31°
2026-04-18 07:16 0.19400 167.35133 20004 ft 435 kts 31°
2026-04-18 07:16 0.22010 167.36647 20451 ft 437 kts 31°
2026-04-18 07:16 0.24631 167.38168 20884 ft 439 kts 31°
2026-04-18 07:17 0.27246 167.39685 21314 ft 441 kts 31°
2026-04-18 07:17 0.29923 167.41242 21733 ft 444 kts 31°
2026-04-18 07:17 0.32573 167.42780 22150 ft 446 kts 31°
2026-04-18 07:17 0.35245 167.44333 22552 ft 448 kts 31°
2026-04-18 07:18 0.37948 167.45903 22951 ft 450 kts 31°
2026-04-18 07:18 0.40653 167.47475 23340 ft 452 kts 31°
2026-04-18 07:18 0.43374 167.49057 23710 ft 454 kts 31°
2026-04-18 07:18 0.46084 167.50632 24077 ft 456 kts 31°
2026-04-18 07:19 0.48829 167.52228 24422 ft 458 kts 31°
2026-04-18 07:19 0.51585 167.53828 24731 ft 461 kts 31°
2026-04-18 07:19 0.54347 167.55434 25030 ft 463 kts 31°
2026-04-18 07:19 0.57137 167.57056 25317 ft 466 kts 31°
2026-04-18 07:20 0.59931 167.58679 25595 ft 469 kts 31°
2026-04-18 07:20 0.62735 167.60309 25868 ft 471 kts 31°
2026-04-18 07:20 0.65589 167.61968 26142 ft 473 kts 31°
2026-04-18 07:20 0.68422 167.63614 26396 ft 476 kts 31°
2026-04-18 07:21 0.71276 167.65273 26653 ft 478 kts 31°
2026-04-18 07:21 0.74130 167.66943 26895 ft 480 kts 31°
2026-04-18 07:21 0.77010 167.68633 27133 ft 482 kts 31°
2026-04-18 07:21 0.79894 167.70323 27370 ft 484 kts 31°
2026-04-18 07:22 0.82786 167.72012 27592 ft 486 kts 31°
2026-04-18 07:22 0.85720 167.73723 27826 ft 487 kts 31°
2026-04-18 07:22 0.88643 167.75426 28138 ft 487 kts 31°
2026-04-18 07:22 0.91534 167.77107 28487 ft 486 kts 31°
2026-04-18 07:23 0.94459 167.78809 28828 ft 485 kts 31°
2026-04-18 07:23 0.97363 167.80496 29142 ft 484 kts 31°
2026-04-18 07:23 1.00250 167.82175 29453 ft 483 kts 31°
2026-04-18 07:23 1.03138 167.83853 29748 ft 483 kts 31°
2026-04-18 07:24 1.06018 167.85527 30032 ft 482 kts 31°
2026-04-18 07:24 1.08903 167.87204 30330 ft 481 kts 31°
2026-04-18 07:24 1.11798 167.88884 30623 ft 480 kts 31°
2026-04-18 07:24 1.14670 167.90543 30917 ft 479 kts 31°
2026-04-18 07:25 1.17539 167.92201 31214 ft 478 kts 31°
2026-04-18 07:25 1.20413 167.93866 31487 ft 477 kts 31°
2026-04-18 07:25 1.23258 167.95515 31739 ft 476 kts 31°
2026-04-18 07:25 1.26093 167.97160 31996 ft 475 kts 31°
2026-04-18 07:26 1.28963 167.98827 32248 ft 475 kts 31°
2026-04-18 07:26 1.31804 168.00478 32495 ft 474 kts 31°
2026-04-18 07:26 1.34637 168.02124 32734 ft 473 kts 31°
2026-04-18 07:26 1.37467 168.03769 32973 ft 472 kts 31°
2026-04-18 07:27 1.40270 168.05399 33194 ft 471 kts 31°
2026-04-18 07:27 1.43114 168.07053 33408 ft 471 kts 31°
2026-04-18 07:27 1.45921 168.08684 33622 ft 470 kts 32°
2026-04-18 07:27 1.48743 168.10324 33837 ft 469 kts 32°
2026-04-18 07:28 1.51554 168.11960 34035 ft 469 kts 32°
2026-04-18 07:28 1.54340 168.13580 34219 ft 468 kts 32°
2026-04-18 07:28 1.57148 168.15214 34390 ft 468 kts 32°
2026-04-18 07:28 1.59968 168.16853 34563 ft 468 kts 32°
2026-04-18 07:29 1.62745 168.18469 34726 ft 468 kts 32°
2026-04-18 07:29 1.65551 168.20102 34877 ft 468 kts 32°
2026-04-18 07:29 1.68365 168.21738 35020 ft 468 kts 32°
2026-04-18 07:29 1.71169 168.23370 35140 ft 468 kts 32°
2026-04-18 07:30 1.73981 168.25006 35248 ft 469 kts 32°
2026-04-18 07:30 1.76761 168.26622 35360 ft 469 kts 32°
2026-04-18 07:30 1.79571 168.28258 35469 ft 470 kts 31°
2026-04-18 07:30 1.82401 168.29904 35569 ft 470 kts 31°
2026-04-18 07:31 1.88034 168.33180 35766 ft 471 kts 31°
2026-04-18 07:31 1.93702 168.36479 35943 ft 473 kts 31°
2026-04-18 07:32 1.99360 168.39771 36119 ft 473 kts 31°
2026-04-18 07:32 2.05056 168.43083 36278 ft 474 kts 31°
2026-04-18 07:33 2.10733 168.46388 36422 ft 475 kts 31°
2026-04-18 07:33 2.16451 168.49698 36581 ft 476 kts 31°
2026-04-18 07:34 2.22130 168.52989 36708 ft 477 kts 31°
2026-04-18 07:34 2.27883 168.56335 36824 ft 478 kts 31°
2026-04-18 07:35 2.33624 168.59674 36892 ft 479 kts 31°
2026-04-18 07:35 2.39341 168.63002 36896 ft 479 kts 31°
2026-04-18 07:36 2.45083 168.66353 36897 ft 479 kts 32°
2026-04-18 07:36 2.50809 168.69717 36897 ft 479 kts 32°
2026-04-18 07:37 2.56513 168.73053 36898 ft 478 kts 32°
2026-04-18 07:37 2.62254 168.76401 36897 ft 478 kts 32°
2026-04-18 07:38 2.67976 168.79736 36897 ft 478 kts 32°
2026-04-18 07:38 2.73700 168.83070 36898 ft 479 kts 32°
2026-04-18 07:39 2.79443 168.86417 36898 ft 482 kts 32°
2026-04-18 07:39 2.85248 168.89798 36897 ft 485 kts 32°
2026-04-18 07:40 2.91043 168.93176 36898 ft 487 kts 32°
2026-04-18 07:40 2.96897 168.96587 36897 ft 489 kts 32°
2026-04-18 07:41 3.02746 168.99995 36897 ft 489 kts 32°
2026-04-18 07:41 3.08642 169.03430 36897 ft 489 kts 32°
2026-04-18 07:42 3.14485 169.06822 36894 ft 489 kts 32°
2026-04-18 07:42 3.20355 169.10228 36886 ft 489 kts 32°
2026-04-18 07:43 3.26225 169.13644 36874 ft 489 kts 32°
2026-04-18 07:43 3.32075 169.17052 36864 ft 489 kts 32°
2026-04-18 07:44 3.37957 169.20479 36855 ft 489 kts 32°
2026-04-18 07:44 3.43672 169.24046 36849 ft 488 kts 37°
2026-04-18 07:45 3.48920 169.28279 36846 ft 486 kts 44°
2026-04-18 07:45 3.53585 169.33151 36845 ft 484 kts 52°
2026-04-18 07:46 3.57593 169.38522 36845 ft 482 kts 57°
2026-04-18 07:46 3.61385 169.44032 36845 ft 482 kts 57°
2026-04-18 07:47 3.65171 169.49536 36863 ft 482 kts 57°
2026-04-18 07:47 3.68950 169.55019 36876 ft 481 kts 57°
2026-04-18 07:48 3.72743 169.60518 36883 ft 481 kts 57°
2026-04-18 07:48 3.76527 169.66005 36886 ft 480 kts 57°
2026-04-18 07:49 3.80305 169.71510 36885 ft 480 kts 57°
2026-04-18 07:49 3.84076 169.76994 36885 ft 480 kts 57°
2026-04-18 07:50 3.87855 169.82472 36886 ft 480 kts 57°